Weather in Ruse

Bulgaria     43°50′45″N   25°57′38″E
temp.,
°C
wind,
m/s
gust,
m/s
humid.,
%
clouds,
%
prec.,
mm/h
press.,
hPa
HPBL,
m
23 april, fri
fri2300:00+12sse2267100 0.0 101821
03:00+11s2271100 0.0 101714
06:00+11w3672100 0.0 1018148
09:00+12w2679100 0.0 1019319
12:00+11sw2491100 0.5 1020206
15:00+16wsw6864100 0.9 10191449
18:00+16w7105852 0.4 10181127
21:00+10w3667100 0.4 1021103
24 april, sat
sat2400:00+8sw22761 0.0 102325
03:00+6ssw3372100 0.0 102342
06:00+5s2273100 0.0 102312
09:00+9s226642 0.0 1024375
12:00+13sse2259100 0.0 10231271
15:00+15ese2252100 0.0 10211662
18:00+14sse1162100 0.0 102028
21:00+12ne1162100 0.0 102112
25 april, sun
sun2500:00+11sse3571100 0.0 1021113
03:00+10sse3576100 0.0 1020131
06:00+9se2474100 0.0 1020127
09:00+10se246798 0.0 1020245
12:00+15sse11475 0.0 10201140
15:00+16n224243 0.0 10182046
18:00+16n124469 0.0 10171791
21:00+13se1158100 0.0 101836
26 april, mon
mon2600:00+12s236238 0.0 101869
03:00+9sw227195 0.0 101817
06:00+10sw356435 0.0 1018103
09:00+12wsw34671 0.0 1018489
12:00+15wsw336124 0.0 10181135
15:00+17w235123 0.1 10171813
18:00+16nne335998 0.1 1015499
21:00+11e368690 0.1 1015112
27 april, tue
tue2700:00+10sse34665 0.0 101553
03:00+9sse3582100 0.0 101371
06:00+8nnw008571 0.0 101311
09:00+11ssw1176100 0.0 1015160
12:00+14ene4469100 0.0 1016666
15:00+16e5563100 0.0 10151122
18:00+14e61075100 0.1 1014425
21:00+13ese71277100 0.1 1013517